Time,TemperatureF,DewpointF,PressureIn,WindDirection,WindDirectionDegrees,WindSpeedMPH,WindSpeedGustMPH,Humidity,HourlyPrecipIn,Conditions,Clouds,dailyrainin,SoftwareType,DateUTC
2013-11-21 00:02:00,27.1,24.0,30.43,ENE,73,5.0,7.0,89,0.00,,,0.05,weatherlink.com 1.10,2013-11-21 05:02:00,
2013-11-21 00:17:00,26.9,24.0,30.44,ENE,69,5.0,8.0,89,0.00,,,0.05,weatherlink.com 1.10,2013-11-21 05:17:00,
2013-11-21 00:32:00,26.6,24.0,30.43,ENE,72,5.0,8.0,89,0.00,,,0.05,weatherlink.com 1.10,2013-11-21 05:32:00,
2013-11-21 00:47:00,26.7,24.0,30.43,ENE,67,5.0,10.0,89,0.00,,,0.05,weatherlink.com 1.10,2013-11-21 05:47:00,
2013-11-21 01:02:00,26.4,24.0,30.43,ENE,72,5.0,8.0,89,0.00,,,0.05,weatherlink.com 1.10,2013-11-21 06:02:00,
2013-11-21 01:17:00,25.8,24.0,30.44,ENE,68,7.0,8.0,91,0.00,,,0.05,weatherlink.com 1.10,2013-11-21 06:17:00,
2013-11-21 01:32:00,27.4,25.0,30.44,NE,43,6.0,10.0,91,0.00,,,0.05,weatherlink.com 1.10,2013-11-21 06:32:00,
2013-11-21 01:47:00,28.0,26.0,30.44,ENE,70,7.0,13.0,91,0.00,,,0.05,weatherlink.com 1.10,2013-11-21 06:47:00,
2013-11-21 02:02:00,28.3,26.0,30.44,ENE,69,7.0,8.0,91,0.00,,,0.05,weatherlink.com 1.10,2013-11-21 07:02:00,
2013-11-21 02:17:00,28.9,27.0,30.44,ENE,67,7.0,8.0,92,0.00,,,0.05,weatherlink.com 1.10,2013-11-21 07:17:00,
2013-11-21 02:32:00,28.3,26.0,30.45,ENE,73,8.0,8.0,92,0.00,,,0.05,weatherlink.com 1.10,2013-11-21 07:32:00,
2013-11-21 02:47:00,28.7,27.0,30.45,ENE,75,5.0,10.0,93,0.00,,,0.05,weatherlink.com 1.10,2013-11-21 07:47:00,
2013-11-21 03:02:00,30.3,29.0,30.45,ENE,61,5.0,10.0,95,0.00,,,0.05,weatherlink.com 1.10,2013-11-21 08:02:00,
2013-11-21 03:17:00,30.8,30.0,30.44,East,82,5.0,7.0,95,0.00,,,0.05,weatherlink.com 1.10,2013-11-21 08:17:00,
2013-11-21 03:32:00,31.1,30.0,30.44,ENE,75,5.0,8.0,95,0.00,,,0.05,weatherlink.com 1.10,2013-11-21 08:32:00,
2013-11-21 03:47:00,31.9,31.0,30.44,ENE,74,4.0,9.0,95,0.00,,,0.05,weatherlink.com 1.10,2013-11-21 08:47:00,
2013-11-21 04:02:00,33.0,32.0,30.43,ENE,65,5.0,7.0,96,0.00,,,0.05,weatherlink.com 1.10,2013-11-21 09:02:00,
2013-11-21 04:17:00,33.5,33.0,30.44,ENE,74,4.0,9.0,96,0.00,,,0.05,weatherlink.com 1.10,2013-11-21 09:17:00,
2013-11-21 04:32:00,34.0,33.0,30.44,ENE,73,5.0,9.0,96,0.00,,,0.05,weatherlink.com 1.10,2013-11-21 09:32:00,
2013-11-21 04:47:00,34.5,34.0,30.44,ENE,77,3.0,8.0,96,0.00,,,0.05,weatherlink.com 1.10,2013-11-21 09:47:00,
2013-11-21 05:02:00,34.1,33.0,30.44,ENE,68,4.0,8.0,96,0.00,,,0.05,weatherlink.com 1.10,2013-11-21 10:02:00,
2013-11-21 05:17:00,34.3,33.0,30.44,East,97,9.0,9.0,96,0.00,,,0.05,weatherlink.com 1.10,2013-11-21 10:17:00,
2013-11-21 05:32:00,34.6,34.0,30.45,ENE,70,5.0,8.0,96,0.00,,,0.05,weatherlink.com 1.10,2013-11-21 10:32:00,
2013-11-21 05:47:00,35.2,34.0,30.45,ENE,67,5.0,8.0,96,0.00,,,0.05,weatherlink.com 1.10,2013-11-21 10:47:00,
2013-11-21 06:02:00,35.1,34.0,30.45,East,98,5.0,8.0,96,0.00,,,0.05,weatherlink.com 1.10,2013-11-21 11:02:00,
2013-11-21 06:17:00,35.1,34.0,30.45,ENE,73,4.0,7.0,97,0.00,,,0.05,weatherlink.com 1.10,2013-11-21 11:17:00,
2013-11-21 06:32:00,35.1,34.0,30.46,ENE,74,4.0,8.0,97,0.00,,,0.05,weatherlink.com 1.10,2013-11-21 11:32:00,
2013-11-21 06:47:00,35.2,35.0,30.46,ENE,71,4.0,7.0,97,0.00,,,0.05,weatherlink.com 1.10,2013-11-21 11:47:00,
2013-11-21 07:02:00,35.3,35.0,30.47,East,79,5.0,7.0,97,0.01,,,0.06,weatherlink.com 1.10,2013-11-21 12:02:00,
2013-11-21 07:17:00,35.6,35.0,30.47,ENE,70,4.0,7.0,97,0.01,,,0.06,weatherlink.com 1.10,2013-11-21 12:17:00,
2013-11-21 07:32:00,35.9,35.0,30.48,ENE,73,3.0,7.0,97,0.01,,,0.06,weatherlink.com 1.10,2013-11-21 12:32:00,
2013-11-21 07:47:00,36.3,36.0,30.48,ENE,68,4.0,8.0,97,0.01,,,0.06,weatherlink.com 1.10,2013-11-21 12:47:00,
2013-11-21 08:02:00,36.7,36.0,30.48,ENE,69,3.0,5.0,97,0.00,,,0.06,weatherlink.com 1.10,2013-11-21 13:02:00,
2013-11-21 08:18:00,36.8,36.0,30.48,ENE,73,4.0,5.0,97,0.00,,,0.06,weatherlink.com 1.10,2013-11-21 13:18:00,
2013-11-21 08:33:00,37.4,37.0,30.48,East,80,5.0,6.0,97,0.00,,,0.06,weatherlink.com 1.10,2013-11-21 13:33:00,
2013-11-21 08:48:00,37.7,37.0,30.47,ENE,70,4.0,7.0,97,0.00,,,0.00,weatherlink.com 1.10,2013-11-21 13:48:00,
2013-11-21 09:03:00,38.1,37.0,30.48,East,84,5.0,7.0,97,0.00,,,0.00,weatherlink.com 1.10,2013-11-21 14:03:00,
2013-11-21 09:18:00,39.2,39.0,30.48,ENE,70,3.0,7.0,97,0.01,,,0.01,weatherlink.com 1.10,2013-11-21 14:18:00,
2013-11-21 09:33:00,39.8,39.0,30.48,ENE,73,4.0,10.0,97,0.01,,,0.01,weatherlink.com 1.10,2013-11-21 14:33:00,
2013-11-21 09:48:00,40.6,40.0,30.48,ENE,74,3.0,10.0,97,0.01,,,0.01,weatherlink.com 1.10,2013-11-21 14:48:00,
2013-11-21 10:03:00,40.7,40.0,30.49,ENE,67,4.0,7.0,97,0.01,,,0.01,weatherlink.com 1.10,2013-11-21 15:03:00,
2013-11-21 10:18:00,41.0,40.0,30.48,ENE,64,3.0,9.0,97,0.00,,,0.01,weatherlink.com 1.10,2013-11-21 15:18:00,
2013-11-21 10:33:00,41.4,41.0,30.48,East,85,5.0,9.0,97,0.00,,,0.01,weatherlink.com 1.10,2013-11-21 15:33:00,
2013-11-21 10:48:00,41.6,41.0,30.48,ENE,69,4.0,8.0,97,0.00,,,0.01,weatherlink.com 1.10,2013-11-21 15:48:00,
2013-11-21 11:03:00,41.6,41.0,30.47,ENE,69,3.0,7.0,97,0.01,,,0.02,weatherlink.com 1.10,2013-11-21 16:03:00,
2013-11-21 11:18:00,41.9,41.0,30.47,ENE,71,4.0,8.0,97,0.01,,,0.02,weatherlink.com 1.10,2013-11-21 16:18:00,
2013-11-21 11:33:00,42.0,41.0,30.46,ENE,69,4.0,8.0,97,0.01,,,0.02,weatherlink.com 1.10,2013-11-21 16:33:00,
2013-11-21 11:48:00,42.1,41.0,30.45,ENE,70,4.0,8.0,97,0.01,,,0.02,weatherlink.com 1.10,2013-11-21 16:48:00,
2013-11-21 12:03:00,42.1,41.0,30.45,ENE,59,4.0,9.0,97,0.00,,,0.02,weatherlink.com 1.10,2013-11-21 17:03:00,
2013-11-21 12:18:00,42.2,41.0,30.44,ENE,73,5.0,8.0,97,0.00,,,0.02,weatherlink.com 1.10,2013-11-21 17:18:00,
2013-11-21 12:33:00,43.2,42.0,30.43,East,86,7.0,7.0,97,0.00,,,0.02,weatherlink.com 1.10,2013-11-21 17:33:00,
2013-11-21 12:48:00,43.4,42.0,30.43,ENE,59,3.0,10.0,96,0.00,,,0.02,weatherlink.com 1.10,2013-11-21 17:48:00,
2013-11-21 13:03:00,42.9,42.0,30.43,ENE,76,4.0,11.0,95,0.00,,,0.02,weatherlink.com 1.10,2013-11-21 18:03:00,
2013-11-21 13:18:00,42.8,42.0,30.42,ENE,64,4.0,8.0,95,0.00,,,0.02,weatherlink.com 1.10,2013-11-21 18:18:00,
2013-11-21 13:33:00,42.8,42.0,30.42,ENE,70,5.0,7.0,96,0.00,,,0.02,weatherlink.com 1.10,2013-11-21 18:33:00,
2013-11-21 13:48:00,42.8,42.0,30.41,ENE,68,4.0,8.0,96,0.00,,,0.02,weatherlink.com 1.10,2013-11-21 18:48:00,
2013-11-21 14:03:00,42.7,42.0,30.40,NE,47,5.0,8.0,96,0.00,,,0.02,weatherlink.com 1.10,2013-11-21 19:03:00,
2013-11-21 14:18:00,42.7,42.0,30.40,ENE,64,5.0,8.0,96,0.00,,,0.02,weatherlink.com 1.10,2013-11-21 19:18:00,
2013-11-21 14:33:00,42.5,42.0,30.39,NE,55,6.0,8.0,97,0.00,,,0.02,weatherlink.com 1.10,2013-11-21 19:33:00,
2013-11-21 14:48:00,42.5,42.0,30.39,ENE,72,4.0,8.0,97,0.00,,,0.02,weatherlink.com 1.10,2013-11-21 19:48:00,
2013-11-21 15:03:00,42.6,42.0,30.39,ENE,66,5.0,7.0,97,0.00,,,0.02,weatherlink.com 1.10,2013-11-21 20:03:00,
2013-11-21 15:18:00,43.0,42.0,30.39,ENE,63,4.0,7.0,97,0.00,,,0.02,weatherlink.com 1.10,2013-11-21 20:18:00,
2013-11-21 15:33:00,43.3,43.0,30.39,ENE,65,5.0,9.0,97,0.00,,,0.02,weatherlink.com 1.10,2013-11-21 20:33:00,
2013-11-21 15:48:00,43.5,43.0,30.39,ENE,61,5.0,11.0,97,0.00,,,0.02,weatherlink.com 1.10,2013-11-21 20:48:00,
2013-11-21 16:03:00,43.8,43.0,30.39,ENE,61,5.0,8.0,97,0.00,,,0.02,weatherlink.com 1.10,2013-11-21 21:03:00,
2013-11-21 16:18:00,44.2,43.0,30.39,ENE,57,4.0,8.0,97,0.00,,,0.02,weatherlink.com 1.10,2013-11-21 21:18:00,
2013-11-21 16:33:00,44.3,44.0,30.39,ENE,65,5.0,9.0,97,0.00,,,0.02,weatherlink.com 1.10,2013-11-21 21:33:00,
2013-11-21 16:48:00,44.3,44.0,30.39,ENE,62,5.0,8.0,97,0.01,,,0.03,weatherlink.com 1.10,2013-11-21 21:48:00,
2013-11-21 17:03:00,44.3,44.0,30.38,ENE,66,4.0,9.0,97,0.01,,,0.03,weatherlink.com 1.10,2013-11-21 22:03:00,
2013-11-21 17:18:00,44.3,44.0,30.38,ENE,63,5.0,11.0,97,0.01,,,0.03,weatherlink.com 1.10,2013-11-21 22:18:00,
2013-11-21 17:33:00,44.2,43.0,30.39,ENE,57,5.0,8.0,97,0.01,,,0.03,weatherlink.com 1.10,2013-11-21 22:33:00,
2013-11-21 17:48:00,44.1,44.0,30.39,ENE,58,4.0,7.0,98,0.00,,,0.03,weatherlink.com 1.10,2013-11-21 22:48:00,
2013-11-21 18:03:00,43.9,43.0,30.39,ENE,63,5.0,9.0,98,0.00,,,0.03,weatherlink.com 1.10,2013-11-21 23:03:00,
2013-11-21 18:19:00,43.9,43.0,30.39,ENE,67,4.0,8.0,98,0.00,,,0.03,weatherlink.com 1.10,2013-11-21 23:19:00,
2013-11-21 18:34:00,43.8,43.0,30.40,ENE,65,4.0,8.0,97,0.00,,,0.03,weatherlink.com 1.10,2013-11-21 23:34:00,
2013-11-21 18:49:00,43.5,43.0,30.39,ENE,66,5.0,8.0,98,0.00,,,0.03,weatherlink.com 1.10,2013-11-21 23:49:00,
2013-11-21 19:04:00,43.4,43.0,30.39,ENE,61,5.0,9.0,98,0.00,,,0.03,weatherlink.com 1.10,2013-11-22 00:04:00,
2013-11-21 19:19:00,43.3,43.0,30.40,ENE,69,7.0,8.0,97,0.00,,,0.03,weatherlink.com 1.10,2013-11-22 00:19:00,
2013-11-21 19:34:00,43.1,43.0,30.39,ENE,62,7.0,8.0,98,0.00,,,0.03,weatherlink.com 1.10,2013-11-22 00:34:00,
2013-11-21 19:49:00,43.2,43.0,30.38,ENE,68,7.0,9.0,98,0.00,,,0.03,weatherlink.com 1.10,2013-11-22 00:49:00,
2013-11-21 20:04:00,43.2,43.0,30.38,NE,39,6.0,9.0,98,0.01,,,0.04,weatherlink.com 1.10,2013-11-22 01:04:00,
2013-11-21 20:19:00,43.1,43.0,30.38,ENE,63,5.0,9.0,98,0.01,,,0.04,weatherlink.com 1.10,2013-11-22 01:19:00,
2013-11-21 20:34:00,43.1,43.0,30.38,ENE,64,7.0,8.0,98,0.01,,,0.04,weatherlink.com 1.10,2013-11-22 01:34:00,
2013-11-21 20:49:00,43.3,43.0,30.38,NE,53,5.0,8.0,98,0.01,,,0.04,weatherlink.com 1.10,2013-11-22 01:49:00,
2013-11-21 21:04:00,43.6,43.0,30.38,ENE,61,5.0,8.0,98,0.00,,,0.04,weatherlink.com 1.10,2013-11-22 02:04:00,
2013-11-21 21:19:00,44.1,44.0,30.38,ENE,63,5.0,9.0,98,0.00,,,0.04,weatherlink.com 1.10,2013-11-22 02:19:00,
2013-11-21 21:34:00,44.2,44.0,30.38,ENE,65,8.0,10.0,98,0.00,,,0.04,weatherlink.com 1.10,2013-11-22 02:34:00,
2013-11-21 21:49:00,44.2,44.0,30.38,ENE,64,5.0,10.0,98,0.00,,,0.04,weatherlink.com 1.10,2013-11-22 02:49:00,
2013-11-21 22:19:00,44.4,44.0,30.38,ENE,63,5.0,11.0,98,0.00,,,0.04,weatherlink.com 1.10,2013-11-22 03:19:00,
2013-11-21 22:34:00,44.7,44.0,30.38,ENE,70,8.0,8.0,98,0.00,,,0.04,weatherlink.com 1.10,2013-11-22 03:34:00,
2013-11-21 22:49:00,44.7,44.0,30.37,ENE,71,5.0,9.0,98,0.00,,,0.04,weatherlink.com 1.10,2013-11-22 03:49:00,
2013-11-21 23:04:00,44.6,44.0,30.37,ENE,78,5.0,9.0,98,0.00,,,0.04,weatherlink.com 1.10,2013-11-22 04:04:00,
2013-11-21 23:19:00,44.4,44.0,30.37,ENE,69,7.0,8.0,98,0.00,,,0.04,weatherlink.com 1.10,2013-11-22 04:19:00,
2013-11-21 23:34:00,44.3,44.0,30.37,ENE,73,7.0,9.0,98,0.00,,,0.04,weatherlink.com 1.10,2013-11-22 04:34:00,
2013-11-21 23:49:00,44.3,44.0,30.36,ENE,59,4.0,7.0,98,0.00,,,0.04,weatherlink.com 1.10,2013-11-22 04:49:00,